Location: Cheyres
(46.8153°N, 6.7877°E)
Time: 04:15:08
(UTC+00:00)

Cosmos 1515 - Pass Details

Date: 11 May 2021
Orbit: 506 x 513 km, 82.5° (Epoch: 18 June)

Event Time Altitude Azimuth Distance (km) Brightness Sun altitude
Exits shadow 22:04:17 54° 60° (ENE) 621 4.0 -22.3°
Drops below altitude 10° 22:07:34 10° 16° (NNE) 1,734 7.1 -22.5°
Sets 22:09:43 0° 13° (NNE) 2,625 8.2 -22.6°
